Wind_Speed
18 18 18 18 17 15 14 13 12 11 9 8 8 7 7 6 6 5 6 6 7 7 6 6 7 7 7 7 7 8 9 10 11 11 12 13 14 15 16 16 17 18 19 19
18 17 17 17 16 14 13 13 12 10 8 7 7 6 6 5 5 4 4 5 6 6 5 6 6 7 7 7 8 8 9 10 11 12 12 13 14 15 15 16 17 18 19 19
17 16 16 15 15 14 13 12 10 9 8 7 6 5 5 4 4 3 4 4 5 5 5 6 6 7 7 7 8 8 9 10 11 12 13 13 14 15 16 16 17 18 18 19
16 16 16 15 14 13 12 11 10 9 8 7 6 4 4 3 3 3 4 4 4 4 5 5 5 6 7 8 8 9 9 11 11 12 13 13 14 15 16 17 17 18 18 19
16 16 15 14 12 12 12 11 9 9 8 6 6 4 3 3 3 3 3 3 3 4 5 5 6 6 7 8 8 9 10 11 12 12 13 14 14 15 16 17 17 18 18 18
15 14 14 13 12 11 11 11 9 8 7 6 6 5 4 3 2 2 2 3 4 4 5 6 6 7 8 8 9 10 11 12 13 13 14 14 15 16 16 17 17 17 18 18
13 13 12 12 12 11 10 10 9 7 7 6 5 4 3 2 1 1 2 4 4 5 6 6 7 8 9 10 11 11 12 13 14 14 15 15 16 16 17 17 17 17 18 18
13 12 11 11 10 10 9 9 9 8 7 6 5 4 2 1 1 2 4 5 5 6 7 8 8 9 10 11 12 13 13 14 15 15 15 16 16 17 17 17 17 18 18 18
12 10 10 10 10 9 8 7 8 7 6 5 4 3 2 1 2 3 5 6 7 8 9 9 10 10 11 12 13 14 14 15 15 16 16 16 17 17 18 17 18 18 17 17
12 10 10 10 9 8 8 7 7 6 5 4 3 2 2 3 3 4 5 6 7 8 9 10 11 11 12 12 13 14 15 16 16 17 17 17 18 18 18 18 18 18 18 17
10 9 8 8 7 7 7 6 6 5 5 4 4 3 3 4 4 5 6 6 7 8 9 10 11 12 13 14 15 15 16 16 17 18 18 19 19 19 19 19 19 19 18 18
7 7 6 6 6 6 5 5 4 4 4 3 4 4 4 5 5 5 6 7 8 9 10 11 12 13 14 15 16 16 17 18 18 19 19 20 20 20 20 20 20 19 19 19
6 6 5 4 4 4 3 3 2 2 2 2 3 4 4 5 6 6 7 9 10 11 12 12 13 14 15 16 17 18 19 20 20 21 21 21 21 21 21 21 21 20 20 19
4 4 4 3 3 2 2 2 2 2 3 3 4 5 6 6 7 8 9 11 11 12 13 15 16 16 17 18 19 20 21 22 22 22 23 23 23 23 23 22 22 22 21 20
3 3 2 2 2 2 2 3 3 4 4 5 6 7 7 8 9 10 11 12 13 14 16 17 18 19 20 21 22 22 23 24 24 25 25 25 26 26 25 24 24 23 22 22
3 3 3 4 4 4 4 4 5 5 6 6 8 8 9 10 11 12 13 14 15 17 18 19 20 21 22 23 24 25 26 27 27 27 28 28 28 28 28 27 26 25 24 23
5 5 5 5 5 6 5 6 7 7 8 9 9 10 11 12 14 15 16 17 18 19 20 21 22 23 24 25 26 28 29 29 30 30 30 30 30 30 30 29 29 28 27 25
6 7 7 7 7 7 8 8 9 10 11 11 12 13 14 15 17 18 19 20 21 22 23 24 25 26 27 29 29 30 31 31 32 33 33 33 33 33 32 31 31 30 29 28
8 8 9 9 9 10 10 11 12 12 13 14 15 16 17 18 20 21 22 24 25 26 27 28 29 30 31 32 32 33 34 34 34 35 35 35 35 35 34 34 33 33 32 30
11 11 11 11 12 13 13 14 15 16 16 17 18 19 19 21 23 24 25 27 28 30 31 32 32 33 34 35 35 36 36 37 37 37 37 37 37 37 37 37 36 36 35 33
14 14 14 15 16 16 16 17 17 18 19 19 20 21 22 23 25 27 28 29 31 32 33 35 36 36 37 38 38 39 39 40 40 40 40 39 39 39 39 39 39 39 38 36
16 17 17 18 19 19 20 20 21 21 22 22 23 24 25 26 28 29 31 32 33 34 36 37 38 38 39 40 41 41 42 43 43 43 43 42 42 41 40 40 41 40 40 39
20 20 20 21 21 22 22 23 24 24 25 25 26 27 28 29 30 32 33 35 36 36 38 39 40 40 41 42 43 44 45 46 46 46 45 44 44 43 42 41 41 40 40 40
23 23 24 24 24 24 25 26 26 27 28 28 29 29 30 32 33 34 35 36 37 39 40 41 42 43 43 44 46 47 47 48 48 47 47 46 45 44 43 42 42 41 40 41
26 27 27 27 27 27 28 29 29 30 30 31 31 32 33 34 35 36 37 38 40 41 42 43 44 45 46 47 48 49 49 49 49 48 48 47 47 46 45 43 42 41 41 41
29 30 30 30 30 30 30 31 32 32 33 33 34 35 36 37 38 39 40 41 42 43 45 46 47 48 49 49 50 50 49 49 49 48 48 47 46 45 45 44 43 42 42 42
Wind_Direction
166 171 175 179 184 188 190 192 196 202 210 217 224 231 241 252 249 250 259 275 282 281 273 262 259 257 257 265 277 285 296 301 304 308 312 317 321 324 327 329 330 331 332 332
157 164 167 171 177 184 186 187 189 196 206 211 217 221 228 235 234 246 263 273 282 278 267 260 255 255 260 270 279 287 296 301 305 309 313 319 322 325 327 329 331 333 334 334
151 157 161 168 175 180 181 182 184 189 193 193 192 201 217 217 226 249 268 274 276 275 272 260 252 256 265 275 282 290 297 301 306 310 315 319 323 326 328 330 332 335 336 336
146 151 155 161 166 170 173 174 173 173 173 176 179 197 210 220 240 262 271 270 272 267 270 268 266 269 273 279 283 288 293 298 304 310 314 318 322 325 328 330 331 334 336 336
140 145 149 152 154 159 159 159 160 162 164 172 179 186 207 219 233 243 253 256 263 268 267 269 274 279 284 287 290 296 298 301 305 308 313 317 321 324 327 329 330 332 335 337
132 137 141 141 141 145 146 149 153 156 161 172 176 182 205 207 217 246 255 259 268 277 276 273 275 283 287 292 297 300 303 305 308 310 312 316 320 323 325 327 328 330 333 335
128 132 135 137 138 141 143 146 151 157 166 175 179 189 200 208 218 276 279 272 273 279 282 281 282 288 290 292 296 301 304 307 308 309 311 314 318 321 323 325 327 329 331 333
128 131 135 138 138 142 149 152 157 164 171 181 184 192 201 214 246 279 289 288 288 288 289 289 288 289 291 295 297 299 302 306 309 310 311 313 316 318 320 322 324 327 328 330
126 131 131 132 134 140 148 151 152 159 165 179 188 186 201 234 262 283 291 293 294 294 294 295 294 294 295 297 299 300 301 304 307 310 311 312 314 316 317 318 320 322 325 326
117 122 124 131 132 136 141 141 148 155 164 178 184 205 228 247 271 285 294 296 299 301 303 303 301 300 299 300 301 301 301 302 305 307 309 311 312 313 313 314 316 318 321 324
118 123 128 132 135 137 140 141 145 157 168 180 207 220 230 244 262 279 293 302 306 307 307 307 305 304 302 302 303 304 303 303 304 305 306 309 310 311 311 311 312 313 316 320
124 127 132 134 137 137 139 143 154 167 177 188 216 229 237 253 271 286 294 302 307 310 310 308 308 307 307 305 303 303 303 303 303 303 303 306 308 309 309 309 309 310 311 314
133 134 132 133 145 151 157 165 179 194 211 233 255 269 271 282 290 297 303 308 310 310 310 310 310 309 307 306 304 303 302 302 301 301 301 301 303 305 306 307 306 306 307 308
145 147 151 160 175 187 204 226 241 251 260 274 280 285 290 291 293 297 302 307 308 308 309 310 310 310 309 307 305 304 303 302 301 300 300 300 300 300 302 303 302 302 301 302
173 182 198 215 230 244 250 255 260 266 272 280 286 287 291 290 293 296 300 303 304 305 307 308 309 309 308 307 305 304 303 302 301 300 299 299 298 298 298 298 298 298 297 297
210 226 243 254 261 265 264 262 264 271 275 278 282 286 289 290 293 295 298 300 301 302 304 305 306 306 306 305 305 304 303 301 300 299 298 297 297 296 295 295 294 292 292 292
238 246 256 261 268 271 271 270 272 277 280 284 288 291 293 294 295 296 298 300 300 301 301 302 303 304 304 303 303 303 302 300 298 297 296 295 294 294 293 292 291 290 288 287
251 258 264 268 272 273 277 279 280 282 286 287 289 292 294 296 296 297 298 299 300 300 301 302 303 304 304 304 303 303 302 300 298 296 295 294 293 291 289 288 287 287 286 284
260 263 266 270 274 279 281 283 285 287 287 288 290 292 294 296 296 297 298 299 299 300 301 302 302 303 303 303 303 303 302 301 299 298 296 294 293 291 288 286 283 282 282 280
263 265 268 271 275 279 282 283 286 288 288 290 292 294 296 297 297 298 299 300 301 302 302 302 302 302 302 302 303 303 302 301 300 298 297 294 292 290 287 284 282 279 277 276
265 268 271 274 276 280 282 283 285 287 290 291 293 295 296 297 299 300 301 301 302 302 303 303 303 302 301 301 302 302 302 302 301 300 297 294 291 289 286 283 280 278 275 272
268 270 272 275 277 280 282 284 285 287 290 291 293 294 296 297 298 300 301 301 302 303 303 304 304 303 302 301 302 302 302 302 302 300 298 295 292 289 286 282 280 278 275 271
269 272 273 275 278 280 282 284 286 288 290 292 293 294 296 297 299 300 301 301 302 303 304 304 304 304 302 302 302 302 303 302 302 300 298 295 292 289 286 283 279 277 275 271
271 272 274 276 278 280 282 284 286 287 289 292 293 294 296 298 300 301 302 303 304 304 304 304 304 304 302 302 302 302 302 302 301 300 297 295 292 288 285 282 279 277 275 272
272 273 274 276 278 280 282 285 287 288 290 291 292 294 296 298 299 300 302 302 303 304 304 304 304 303 303 303 302 302 302 302 301 300 297 294 291 288 285 282 279 275 273 271
271 272 274 276 279 281 283 285 286 288 289 291 292 294 296 297 299 300 301 302 303 304 304 303 303 303 303 303 303 303 302 302 301 300 298 295 291 287 284 281 277 274 271 269
Height
5812 5818 5821 5826 5829 5833 5836 5839 5842 5844 5846 5848 5849 5850 5850 5851 5851 5851 5852 5852 5852 5852 5852 5852 5852 5853 5853 5853 5852 5851 5850 5849 5848 5846 5844 5842 5840 5837 5834 5830 5827 5823 5820 5816
5815 5819 5822 5826 5829 5833 5836 5839 5841 5844 5845 5847 5848 5849 5849 5849 5850 5850 5851 5851 5851 5851 5851 5851 5851 5851 5852 5851 5851 5850 5849 5848 5846 5845 5843 5840 5838 5835 5832 5828 5825 5821 5817 5814
5817 5821 5823 5827 5830 5833 5836 5838 5841 5843 5844 5846 5848 5848 5848 5849 5849 5849 5850 5850 5850 5850 5850 5850 5850 5850 5850 5850 5849 5848 5847 5846 5845 5843 5841 5838 5836 5833 5830 5827 5823 5819 5815 5812
5818 5821 5825 5828 5830 5833 5836 5838 5840 5842 5845 5846 5848 5849 5849 5848 5849 5849 5849 5849 5849 5849 5849 5849 5849 5849 5849 5848 5848 5847 5846 5844 5843 5841 5839 5836 5834 5831 5828 5824 5821 5817 5813 5810
5821 5824 5826 5829 5831 5834 5836 5839 5841 5843 5845 5846 5847 5849 5849 5848 5848 5849 5848 5848 5848 5848 5848 5848 5848 5848 5848 5847 5846 5845 5844 5843 5841 5839 5836 5834 5831 5829 5825 5822 5819 5815 5812 5808
5825 5827 5828 5831 5833 5835 5837 5840 5842 5844 5845 5846 5847 5849 5848 5847 5848 5848 5848 5848 5848 5848 5847 5847 5847 5847 5846 5846 5845 5844 5842 5841 5839 5837 5834 5832 5829 5826 5823 5820 5817 5813 5810 5806
5828 5829 5831 5833 5835 5837 5839 5841 5844 5845 5846 5846 5847 5847 5848 5847 5847 5847 5847 5847 5847 5846 5846 5846 5846 5845 5845 5844 5843 5842 5840 5839 5837 5835 5832 5830 5827 5824 5822 5818 5815 5812 5808 5805
5830 5832 5833 5834 5836 5838 5839 5842 5844 5846 5846 5846 5846 5846 5847 5847 5847 5846 5846 5846 5845 5845 5845 5844 5844 5843 5842 5841 5840 5839 5838 5836 5834 5832 5830 5827 5825 5822 5819 5816 5813 5810 5806 5803
5833 5834 5835 5835 5837 5838 5840 5841 5843 5844 5845 5846 5846 5846 5846 5845 5846 5845 5845 5844 5844 5844 5843 5843 5842 5841 5840 5839 5838 5836 5835 5833 5831 5829 5827 5825 5822 5820 5817 5814 5811 5808 5804 5801
5834 5836 5836 5837 5838 5840 5841 5841 5843 5844 5844 5845 5845 5845 5846 5845 5844 5844 5844 5843 5843 5842 5841 5841 5840 5839 5838 5837 5835 5834 5832 5830 5828 5826 5824 5822 5819 5817 5814 5811 5808 5805 5802 5799
5836 5838 5839 5839 5839 5840 5841 5842 5842 5843 5844 5845 5845 5847 5844 5844 5843 5843 5842 5841 5841 5840 5839 5838 5837 5836 5835 5834 5832 5831 5829 5827 5825 5823 5821 5818 5816 5814 5811 5808 5805 5802 5799 5796
5837 5838 5839 5839 5840 5840 5840 5841 5842 5843 5843 5843 5844 5847 5843 5842 5842 5841 5840 5840 5839 5838 5837 5836 5834 5833 5832 5830 5829 5827 5825 5823 5821 5819 5817 5815 5812 5810 5807 5805 5802 5799 5797 5794
5837 5839 5839 5840 5842 5841 5840 5840 5841 5841 5841 5842 5842 5844 5841 5840 5839 5839 5838 5837 5836 5835 5834 5833 5831 5830 5828 5827 5825 5823 5821 5819 5817 5815 5813 5810 5808 5806 5803 5801 5798 5795 5793 5791
5837 5838 5840 5840 5840 5839 5839 5839 5839 5840 5840 5840 5840 5839 5838 5837 5837 5836 5835 5834 5833 5832 5831 5829 5828 5826 5824 5822 5821 5819 5816 5814 5812 5810 5807 5805 5803 5801 5798 5796 5793 5791 5789 5787
5837 5838 5838 5838 5838 5838 5838 5838 5838 5838 5838 5838 5837 5836 5836 5835 5834 5833 5832 5831 5830 5828 5827 5825 5823 5822 5820 5817 5815 5813 5811 5808 5806 5804 5801 5799 5797 5795 5792 5790 5788 5786 5784 5782
5836 5837 5837 5837 5836 5836 5836 5836 5836 5835 5835 5835 5834 5834 5833 5832 5831 5829 5828 5827 5825 5824 5822 5820 5818 5816 5814 5812 5809 5807 5804 5801 5799 5797 5794 5792 5790 5788 5786 5783 5781 5780 5778 5776
5834 5835 5835 5835 5834 5834 5834 5834 5833 5833 5832 5832 5831 5831 5829 5828 5826 5825 5824 5822 5820 5819 5817 5815 5813 5810 5808 5805 5802 5799 5796 5793 5791 5788 5786 5784 5782 5780 5778 5776 5774 5772 5771 5769
5832 5832 5832 5832 5832 5832 5834 5831 5830 5829 5829 5828 5827 5826 5825 5823 5822 5820 5818 5816 5815 5813 5810 5808 5806 5803 5800 5797 5794 5790 5787 5784 5781 5779 5776 5774 5772 5770 5768 5767 5765 5763 5762 5761
5829 5829 5829 5829 5828 5828 5829 5827 5826 5825 5825 5823 5822 5821 5820 5818 5816 5814 5812 5810 5807 5805 5803 5800 5797 5794 5791 5788 5784 5781 5777 5774 5771 5768 5765 5763 5761 5759 5758 5756 5754 5753 5752 5751
5826 5826 5826 5825 5824 5825 5825 5823 5821 5821 5820 5819 5817 5815 5814 5812 5810 5808 5805 5802 5799 5797 5794 5791 5788 5784 5781 5777 5774 5770 5767 5763 5760 5756 5753 5750 5748 5747 5745 5744 5742 5741 5740 5740
5822 5821 5821 5820 5819 5819 5819 5817 5816 5816 5816 5813 5810 5809 5807 5805 5803 5801 5797 5794 5791 5788 5785 5781 5777 5774 5770 5767 5763 5759 5755 5751 5748 5744 5740 5737 5735 5733 5731 5730 5729 5728 5727 5727
5816 5816 5816 5815 5814 5815 5812 5811 5810 5809 5807 5805 5803 5802 5800 5797 5795 5792 5789 5786 5782 5779 5775 5771 5767 5763 5759 5755 5751 5747 5743 5739 5735 5731 5727 5724 5720 5718 5716 5714 5713 5713 5712 5713
5810 5810 5809 5809 5810 5807 5805 5804 5802 5801 5799 5797 5795 5793 5791 5789 5786 5783 5780 5776 5772 5769 5764 5760 5755 5751 5747 5742 5738 5734 5730 5725 5721 5716 5712 5709 5705 5703 5700 5699 5698 5697 5697 5697
5803 5802 5801 5801 5800 5799 5797 5796 5794 5793 5791 5789 5787 5784 5782 5779 5776 5773 5769 5766 5762 5757 5753 5748 5744 5739 5734 5730 5725 5720 5715 5710 5705 5701 5696 5693 5690 5687 5685 5683 5682 5682 5682 5682
5795 5793 5792 5792 5791 5790 5789 5787 5785 5784 5781 5779 5777 5775 5772 5769 5766 5762 5758 5754 5750 5746 5741 5736 5731 5726 5721 5716 5711 5706 5701 5696 5690 5686 5681 5677 5674 5672 5670 5668 5667 5666 5666 5666
5785 5784 5783 5783 5782 5781 5780 5778 5775 5773 5771 5769 5767 5764 5761 5758 5755 5751 5747 5742 5738 5733 5728 5723 5718 5713 5708 5702 5697 5691 5686 5680 5675 5671 5666 5662 5658 5655 5653 5652 5651 5650 5650 5650